Regional Weather Roundup
Issued by NWS

Home | Current Version | Previous Version | Text Only | Print | Product List | Glossary Off
Versions: 1 2 3 4 5 6 7 8 9 10 11 12 13 14 15 16 17 18 19 20 21 22 23 24 25 26 27 28 29 30 31 32 33 34 35 36 37 38 39 40 41 42 43 44 45 46 47 48 49 50

000
ASUS43 KMPX 310001
RWRMN
WEATHER ROUNDUP FOR MINNESOTA
NATIONAL WEATHER SERVICE TWIN CITIES/CHANHASSEN MN
700 PM CDT THU OCT 30 2014


NOTE: "FAIR" INDICATES FEW OR NO CLOUDS BELOW 12,000 FEET WITH NO
SIGNIFICANT WEATHER AND/OR OBSTRUCTIONS TO VISIBILITY. N/A MEANS
CURRENT SKY AND/OR WEATHER CONDITIONS ARE NOT AVAILABLE.

MNZ060>063-068>070-310100-
   Twin Cities Metro

CITY           SKY/WX    TMP DP  RH WIND       PRES   REMARKS
TWIN CITIES    CLOUDY    43  30  60 N17G29    30.20R
6HR MIN TEMP:  43; 6HR MAX TEMP:  49;

ST PAUL        CLOUDY    44  31  60 N18G26    30.21R
CRYSTAL        CLOUDY    44  30  57 NW20G29   30.21R
BLAINE         CLOUDY    45  32  61 NW13        N/A
LAKEVILLE      CLOUDY    43  32  65 NW15G25   30.19R
EDEN PRAIRIE   CLOUDY    44  32  62 N15       30.20R
6HR MIN TEMP:  44; 6HR MAX TEMP:  50;

SOUTH ST PAUL  CLOUDY    44  32  61 N15G23    30.19R
LAKE ELMO      CLOUDY    43  32  65 N12G21    30.20R
$$
MNZ001>005-007-008-013>017-022>024-027-028-310100-
   Northwest Minnesota

CITY           SKY/WX    TMP DP  RH WIND       PRES   REMARKS
BEMIDJI        MOCLDY    31  18  59 N20       30.35R WCI  19
HALLOCK        CLEAR     30  21  69 N10       30.49R WCI  21
ROSEAU         CLEAR     30  18  59 N13       30.44R WCI  20
WARROAD        FAIR      30  18  59 NW10G21   30.43R WCI  21
THIEF RVR FALL CLEAR     30  21  69 N15       30.43R WCI  19
CROOKSTON      CLEAR     30  21  69 N9        30.47R WCI  22
FOSSTON        CLEAR     28  21  74 N20       30.41R WCI  15
DETROIT LAKES  MOCLDY    32  25  74 N16       30.38R WCI  21
MOORHEAD       MOCLDY    34  25  69 N16       30.44R WCI  23
PARK RAPIDS    PTCLDY    33  16  49 N18G25    30.32R WCI  22
MAHNOMEN       MOCLDY    32  22  67 N16G23    30.38R WCI  21
$$
MNZ006-009>011-018-025>026-310100-
   North Central Minnesota

CITY           SKY/WX    TMP DP  RH WIND       PRES   REMARKS
BAUDETTE       PTCLDY    31  17  56 N21G30    30.38R WCI  18
FLAG ISLAND    PTCLDY    32  21  64 N24G32    30.41R WCI  19
INTL FALLS     PTCLDY    28  19  69 N14       30.32R WCI  17
6HR MIN TEMP:  28; 6HR MAX TEMP:  39; 6HR PCP:  0.04;

WASKISH        CLEAR     30  18  59 N14G20    30.37R WCI  20
BIG FORK       CLEAR     30  16  55 N10G24    30.31R WCI  21
LONGVILLE      CLEAR     34  16  47 NW15G26   30.30R WCI  24
GRAND RAPIDS   MOCLDY    32  14  47 N23G39    30.26R WCI  19
CRANE LAKE     FLURRIES  27  21  80 N12G23    30.28R WCI  16
ORR            FLURRIES  28  21  74 NW12G17   30.24R WCI  18
COOK           PTCLDY    28  21  74 NW12G21   30.25R WCI  18
WALKER         MOCLDY    32  13  46 N10G21    30.31R WCI  24
$$
MNZ012-019>021-037-310100-
   Northeast Minnesota

CITY           SKY/WX    TMP DP  RH WIND       PRES   REMARKS
DULUTH         LGT SNOW  34  25  69 NW10G28   30.17R WCI  26
6HR MIN TEMP:  33; 6HR MAX TEMP:  42; 6HR PCP:  0.01;

ELY            CLOUDY    28  23  80 NW15G25   30.19R WCI  17
HIBBING        PTCLDY    31  17  56 N28G35    30.24R WCI  17
EVELETH        MIX PCPN  32  27  80 NW18G29   30.23R WCI  20
DULUTH HARBOR  LGT RAIN  37  32  81 N20G35    30.21R
TWO HARBORS    CLOUDY    36  28  75 NW7       30.14R
SILVER BAY     LGT SNOW  34  30  86 NW7G23    30.12R WCI  28
GRAND MARAIS     N/A     35  31  85 N9        30.08R WCI  28
G MARAIS ARPRT CLOUDY    28  25  86 N13       30.05R VSB 3/4 WCI  18
$$
MNZ029>031-032-039>041-046>048-054>057-064-310100-
   West Central Minnesota

CITY           SKY/WX    TMP DP  RH WIND       PRES   REMARKS
FERGUS FALLS   MOCLDY    34  18  51 N16G25    30.41R WCI  23
WHEATON        CLOUDY    32  23  69 NW18G31   30.43R WCI  20
MORRIS         CLOUDY    36  27  69 N22G32    30.35R
ALEXANDRIA     CLOUDY    35  24  64 N22G37    30.33R WCI  23
ELBOW LAKE     CLOUDY    34  25  69 N23       30.36R WCI  22
WADENA         FAIR      30  19  64 NW10      30.34R WCI  21
GLENWOOD       CLOUDY    36  25  64 N28G33    30.31R
APPLETON       CLOUDY    37  27  65 N24G33    30.37R
BENSON         CLOUDY    36  28  75 N16G25    30.34R
ORTONVILLE     CLOUDY    36  27  69 N23G32    30.39R
MADISON        CLOUDY    39  30  70 N24G33    30.37R
WILLMAR        CLOUDY    39  27  60 N17G30    30.31R
$$
MNZ033>034-036-042>043-049>051-058-059-310100-
   Central Minnesota

CITY           SKY/WX    TMP DP  RH WIND       PRES   REMARKS
ST CLOUD       CLOUDY    42  25  50 N15G25    30.25R
6HR MIN TEMP:  42; 6HR MAX TEMP:  47; 6HR PCP: TRACE;

SAUK CENTRE    CLOUDY    36  24  62 NW21G28   30.30R
PAYNESVILLE    CLOUDY    36  27  69 W16G22    30.29R
AITKIN         PTCLDY    37  19  48 NW14G26   30.25R
PINE RIVER     PTCLDY    34  19  55 N17G29    30.32R WCI  23
BRAINERD       CLOUDY    35  18  49 N23G37    30.29R WCI  23
STAPLES        MOCLDY    32  19  59 NW14      30.32R WCI  22
LONG PRAIRIE     N/A     34  25  69 NW22G29   30.31R WCI  22
LITTLE FALLS   CLOUDY    37  23  56 N9        30.28R
LITCHFIELD     CLOUDY    41  30  65 N21G29    30.27R
BUFFALO        CLOUDY    42  29  61 NW16G23   30.25R
MAPLE LAKE     CLOUDY    42  31  65 NW14G24   30.25R
$$
MNZ037-044-045-052-053-310100-
   East Central Minnesota

CITY           SKY/WX    TMP DP  RH WIND       PRES   REMARKS
PRINCETON      CLOUDY    43  28  56 NW15      30.24R
MORA           CLOUDY    37  27  65 N14G21    30.22R
CAMBRIDGE      CLOUDY    43  30  61 NW8       30.21R
RUSH CITY      MOCLDY    39  28  65 NW10G22   30.21R
MOOSE LAKE     CLOUDY    34  30  86 N12G26    30.20R WCI  25
HINCKLEY       DRIZZLE   37  32  81 NW15G21   30.21R
CLOQUET        PTCLDY    34  21  60 NW16G29   30.20R WCI  23
MCGREGOR       PTCLDY    34  27  75 NW18G30   30.24R WCI  23
$$
MNZ071>073-080-081-089-090-097-098-310100-
   Southwest Minnesota

CITY           SKY/WX    TMP DP  RH WIND       PRES   REMARKS
MONTEVIDEO     CLOUDY    36  30  80 N22G30    30.35R
GRANITE FALLS  CLOUDY    38  31  76 NW16G29   30.34R
CANBY          CLOUDY    36  30  79 N22G30    30.37R
MARSHALL       CLOUDY    37  28  70 N20G31    30.32R
REDWOOD FALLS  CLOUDY    41  30  65 N23G31    30.29R
OLIVIA         CLOUDY    39  30  70 NW21G28   30.28R
PIPESTONE      CLOUDY    37  30  75 N16G25    30.30R
WINDOM         CLOUDY    41  34  75 NW28G36   30.26R
WORTHINGTON    CLOUDY    39  34  81 N28       30.28R
JACKSON        CLOUDY    45  34  65 NW24G31   30.24R
TRACY          CLOUDY    38  31  75 N25G33    30.31R
SLAYTON        CLOUDY    37  31  79 N28G33    30.30R
$$
MNZ065>067-074>077-082>085-091>093-310100-
   South Central Minnesota

CITY           SKY/WX    TMP DP  RH WIND       PRES   REMARKS
MANKATO        CLOUDY    45  34  65 N16       30.21R
NEW ULM        CLEAR     45  34  65 N17G24    30.23R
ST JAMES       CLOUDY    46  36  66 NW14G22   30.24R
FAIRMONT       CLOUDY    46  30  53 N25G31    30.21R
GLENCOE        CLOUDY    43  32  66 NW16G25   30.23R
FARIBAULT      CLOUDY    45  36  70 NW13G25   30.19R
OWATONNA       PTCLDY    46  36  66 NW21      30.17R
WASECA         CLOUDY    43  32  65 NW16G28   30.20R
ALBERT LEA     CLOUDY    46  37  71 NW10G16   30.16R
$$
MNZ078>079-086>088-094>096-310100-
   Southeast Minnesota

CITY           SKY/WX    TMP DP  RH WIND       PRES   REMARKS
ROCHESTER      CLOUDY    44  37  76 NW8       30.14R
6HR MIN TEMP:  43; 6HR MAX TEMP:  48;

RED WING       CLOUDY    45  34  65 N9G18     30.17R
STANTON        CLOUDY    46  36  70 N20G30    30.17R
DODGE CENTER   CLOUDY    45  37  76 N10       30.14R
WINONA         CLOUDY    46  37  71 NW5       30.12R
AUSTIN         CLOUDY    45  36  70 N6        30.14R
PRESTON        CLOUDY    43  37  80 NW8       30.12R
$$
ABBREVIATIONS USED IN REMARKS
   TC - TEMPERATURES IN CELSIUS
  WCI - WIND CHILL INDEX
   HX - HEAT INDEX
  VSB - VISIBILITY
$$



USA.gov is the U.S. government's official web portal to all federal, state and local government web resources and services.